Frenchville, ME

4:46 AM EDT on April 25, 2018 (GMT -0400)
Northern Aroostook Regional

Weather History for KFVE - May, 2013

Change the Weather History Date:

Monday, May 13, 2013

  Actual Average Record
Temperature  
Mean Temperature 42 °F 50 °F  
Max Temperature 49 °F 60 °F 72 °F (2006)
Min Temperature 35 °F 40 °F 26 °F (2002)
Degree Days  
Heating Degree Days 23    
Month to date heating degree days 114  
Since 1 July heating degree days 8595  
Cooling Degree Days 0    
Month to date cooling degree days 4  
Year to date cooling degree days 4  
Moisture  
Dew Point 28 °F    
Average Humidity 59    
Maximum Humidity 76    
Minimum Humidity 42    
Precipitation  
Precipitation 0.00 in 0.08 in 0.18 in (2016)
Month to date precipitation 1.17 1.17  
Year to date precipitation 5.37 8.03  
Sea Level Pressure  
Sea Level Pressure 29.74 in    
Wind  
Wind Speed 11 mph (SW)    
Max Wind Speed 24 mph    
Max Gust Speed 36 mph    
Visibility 10 miles    
Events      
T = Trace of Precipitation, MM = Missing Value Source: NWS Daily Summary

Daily Weather History Graph

Daily Weather History Graph

Search for Another Location

Airport or City:

Astronomy

May. 13, 2013 Rise Set
Actual Time 4:59 AM EDT 8:00 PM EDT
Civil Twilight 4:23 AM EDT 8:36 PM EDT
Nautical Twilight 3:36 AM EDT 9:23 PM EDT
Astronomical Twilight 2:40 AM EDT 10:20 PM EDT
Moon 7:40 AM EDT (5/13) 11:07 PM EDT (5/13)
Length of Visible Light 16h 13m
Length of Day
15h 01m
Waxing Crescent, 12% of the Moon is Illuminated
May 13
Waxing Crescent
May 18
First Quarter
May 25
Full
May 31
Last Quarter
Jun 8
New

Hourly Weather History & Observations

Time (EDT) Temp. Windchill Dew Point Humidity Pressure Visibility Wind Dir Wind Speed Gust Speed Precip Events Conditions
12:53 AM 44.1 °F 37.4 °F 34.0 °F 68% 29.58 in 10.0 mi West 13.8 mph 20.7 mph N/A   Overcast
1:53 AM 43.0 °F 38.2 °F 33.1 °F 68% 29.59 in 10.0 mi WSW 8.1 mph - N/A   Overcast
2:53 AM 42.1 °F 40.2 °F 32.0 °F 67% 29.61 in 10.0 mi SSW 3.5 mph - N/A   Overcast
3:53 AM 39.0 °F 32.3 °F 30.9 °F 73% 29.61 in 10.0 mi WSW 10.4 mph - N/A   Mostly Cloudy
4:53 AM 37.9 °F 34.4 °F 28.0 °F 68% 29.62 in 10.0 mi WNW 4.6 mph - N/A   Partly Cloudy
5:53 AM 37.0 °F 32.4 °F 30.0 °F 76% 29.64 in 10.0 mi SSW 5.8 mph - N/A   Clear
6:53 AM 39.0 °F 33.4 °F 30.9 °F 73% 29.65 in 10.0 mi SSW 8.1 mph 16.1 mph N/A   Clear
7:53 AM 41.0 °F 32.8 °F 26.1 °F 55% 29.66 in 10.0 mi SW 16.1 mph 28.8 mph N/A   Clear
8:53 AM 39.9 °F 30.5 °F 25.0 °F 55% 29.68 in 10.0 mi SW 19.6 mph 27.6 mph N/A   Mostly Cloudy
9:53 AM 42.1 °F 33.1 °F 25.0 °F 51% 29.70 in 10.0 mi WSW 20.7 mph 31.1 mph N/A   Mostly Cloudy
10:53 AM 43.0 °F 34.8 °F 25.0 °F 49% 29.70 in 10.0 mi SSW 18.4 mph 27.6 mph N/A   Overcast
11:53 AM 45.0 °F 38.2 °F 27.0 °F 49% 29.71 in 10.0 mi SW 15.0 mph 23.0 mph N/A   Overcast
12:53 PM 46.0 °F 40.2 °F 26.1 °F 46% 29.72 in 10.0 mi SW 12.7 mph 28.8 mph N/A   Overcast
1:53 PM 45.0 °F 36.9 °F 26.1 °F 48% 29.75 in 10.0 mi SSW 20.7 mph 28.8 mph N/A   Overcast
2:53 PM 46.9 °F - 26.1 °F 44% 29.78 in 10.0 mi SW 16.1 mph 25.3 mph N/A   Overcast
4:53 PM 46.9 °F - 25.0 °F 42% 29.79 in 10.0 mi SW 15.0 mph 25.3 mph N/A   Mostly Cloudy
5:53 PM 46.0 °F 39.0 °F 26.1 °F 46% 29.81 in 10.0 mi SW 17.3 mph 24.2 mph N/A   Overcast
6:53 PM 45.0 °F 39.3 °F 27.0 °F 49% 29.83 in 10.0 mi SW 11.5 mph 24.2 mph N/A   Scattered Clouds
7:53 PM 42.8 °F 37.0 °F 26.6 °F 53% 29.85 in 10.0 mi WSW 10.4 mph 18.4 mph N/A   Scattered Clouds
8:53 PM 39.9 °F 35.8 °F 28.0 °F 63% 29.88 in 10.0 mi SSW 5.8 mph - N/A   Clear
9:53 PM 39.0 °F 34.8 °F 28.9 °F 67% 29.90 in 10.0 mi SSW 5.8 mph - N/A   Scattered Clouds
10:53 PM 36.0 °F 31.1 °F 28.9 °F 76% 29.93 in 10.0 mi South 5.8 mph - N/A   Clear
11:53 PM 36.0 °F - 28.9 °F 76% 29.95 in 10.0 mi Calm Calm - N/A   Overcast